| time (UTC) | temp C | wind direction | speed KPH | gust KPH | rain 1hr cm | rain 24hr cm | rain mn cm | humidity % | barometer mb |
| 20260510060006 | 10 | 0 | 0.0 | 0.0 | 0.00 | 1.02 | 0.00 | 88 | 1012.1 |
| 20260510054506 | 9 | 0 | 0.0 | 0.0 | 0.00 | 1.02 | 0.00 | 88 | 1012.1 |
| 20260510053005 | 9 | 0 | 0.0 | 0.0 | 0.00 | 1.02 | 0.00 | 88 | 1012.0 |
| 20260510050005 | 10 | 0 | 0.0 | 0.0 | 0.00 | 1.02 | 0.00 | 88 | 1012.0 |
| 20260510044505 | 9 | 0 | 0.0 | 0.0 | 0.00 | 1.02 | 0.00 | 88 | 1011.9 |
| 20260510041505 | 10 | 0 | 0.0 | 0.0 | 0.00 | 1.02 | 0.00 | 88 | 1012.0 |
| 20260510040005 | 9 | 0 | 0.0 | 0.0 | 0.00 | 1.02 | 0.00 | 88 | 1012.0 |
| 20260510034506 | 10 | 0 | 0.0 | 0.0 | 0.00 | 1.02 | 0.00 | 88 | 1011.9 |
| 20260510033005 | 10 | 0 | 0.0 | 0.0 | 0.00 | 1.02 | 0.00 | 88 | 1012.1 |
| 20260510031506 | 10 | 0 | 0.0 | 0.0 | 0.00 | 1.02 | 0.00 | 88 | 1012.1 |
| 20260510030005 | 10 | 0 | 0.0 | 0.0 | 0.00 | 1.02 | 0.00 | 88 | 1012.2 |
| 20260510024505 | 10 | 0 | 0.0 | 0.0 | 0.00 | 1.02 | 0.00 | 88 | 1012.4 |
| 20260510023006 | 10 | 67 | 0.0 | 1.6 | 0.00 | 1.02 | 0.00 | 88 | 1012.5 |
| 20260510021505 | 10 | 0 | 0.0 | 0.0 | 0.00 | 1.02 | 0.00 | 88 | 1012.5 |
| 20260510014505 | 10 | 0 | 0.0 | 0.0 | 0.00 | 1.02 | 0.00 | 88 | 1012.4 |
| 20260510013005 | 10 | 0 | 0.0 | 0.0 | 0.00 | 1.02 | 0.00 | 88 | 1012.3 |
| 20260510011505 | 10 | 0 | 0.0 | 0.0 | 0.00 | 1.02 | 0.00 | 88 | 1012.4 |
| 20260510001505 | 10 | 0 | 0.0 | 0.0 | 0.00 | 1.02 | 0.00 | 88 | 1012.8 |
| 20260510000005 | 10 | 0 | 0.0 | 0.0 | 0.00 | 1.02 | 0.00 | 88 | 1013.0 |
| 20260509234505 | 10 | 0 | 0.0 | 0.0 | 0.00 | 1.02 | 0.00 | 88 | 1013.1 |
| 20260509233005 | 10 | 0 | 0.0 | 0.0 | 0.00 | 1.02 | 0.00 | 87 | 1013.2 |
| 20260509231505 | 10 | 0 | 0.0 | 0.0 | 0.00 | 1.02 | 0.00 | 87 | 1013.4 |
| 20260509230006 | 10 | 73 | 0.0 | 1.6 | 0.00 | 1.02 | 0.00 | 87 | 1013.4 |
| 20260509224505 | 10 | 0 | 0.0 | 0.0 | 0.00 | 1.02 | 0.00 | 87 | 1013.4 |
| 20260509221504 | 10 | 0 | 0.0 | 0.0 | 0.00 | 1.02 | 0.00 | 87 | 1013.3 |
| 20260509220005 | 10 | 0 | 0.0 | 0.0 | 0.00 | 1.02 | 0.00 | 87 | 1013.1 |
| 20260509214505 | 10 | 0 | 0.0 | 0.0 | 0.00 | 1.02 | 1.02 | 87 | 1013.1 |
| 20260509213006 | 10 | 0 | 0.0 | 0.0 | 0.00 | 1.02 | 1.02 | 87 | 1013.2 |
| 20260509203004 | 10 | 0 | 0.0 | 0.0 | 0.03 | 1.02 | 1.02 | 87 | 1012.6 |
| 20260509201505 | 10 | 0 | 0.0 | 0.0 | 0.03 | 1.02 | 1.02 | 87 | 1012.4 |
| 20260509193005 | 10 | 0 | 0.0 | 0.0 | 0.00 | 0.99 | 0.99 | 87 | 1011.7 |
| 20260509183005 | 11 | 0 | 0.0 | 0.0 | 0.13 | 0.99 | 0.99 | 87 | 1011.0 |
| 20260509181505 | 11 | 0 | 0.0 | 0.0 | 0.23 | 0.99 | 0.99 | 87 | 1010.7 |
| 20260509180004 | 11 | 0 | 0.0 | 0.0 | 0.38 | 0.99 | 0.99 | 87 | 1010.6 |
| 20260509174505 | 11 | 0 | 0.0 | 0.0 | 0.48 | 0.91 | 0.91 | 87 | 1010.6 |
| 20260509173004 | 11 | 0 | 0.0 | 0.0 | 0.48 | 0.86 | 0.86 | 87 | 1011.1 |
| 20260509163007 | 11 | 0 | 0.0 | 0.0 | 0.25 | 0.38 | 0.38 | 87 | 1012.6 |
| 20260509160007 | 12 | 113 | 0.0 | 3.2 | 0.18 | 0.23 | 0.23 | 87 | 1012.8 |
| 20260509154507 | 12 | 0 | 0.0 | 0.0 | 0.15 | 0.15 | 0.15 | 87 | 1012.6 |
| 20260509150007 | 13 | 285 | 1.6 | 12.9 | 0.05 | 0.05 | 0.05 | 88 | 1010.6 |
| 20260509144506 | 13 | 265 | 1.6 | 4.8 | 0.00 | 0.00 | 0.00 | 88 | 1011.3 |
| 20260509143006 | 13 | 258 | 4.8 | 11.3 | 0.00 | 0.00 | 0.00 | 84 | 1012.2 |
| 20260509141506 | 14 | 265 | 1.6 | 8.0 | 0.00 | 0.00 | 0.00 | 79 | 1012.4 |
| 20260509133006 | 15 | 83 | 1.6 | 6.4 | 0.00 | 0.00 | 0.00 | 79 | 1012.6 |
| 20260509131506 | 15 | 279 | 1.6 | 8.0 | 0.00 | 0.00 | 0.00 | 78 | 1012.4 |
| 20260509121506 | 14 | 262 | 3.2 | 9.7 | 0.00 | 0.00 | 0.00 | 83 | 1013.1 |
| 20260509114506 | 15 | 270 | 3.2 | 11.3 | 0.00 | 0.00 | 0.00 | 77 | 1013.6 |
| 20260509113006 | 15 | 247 | 1.6 | 8.0 | 0.00 | 0.00 | 0.00 | 79 | 1013.8 |
| 20260509110006 | 15 | 220 | 1.6 | 6.4 | 0.00 | 0.00 | 0.00 | 81 | 1013.7 |
| 20260509093006 | 15 | 274 | 1.6 | 4.8 | 0.00 | 0.00 | 0.00 | 75 | 1013.5 |
| 20260509084506 | 15 | 284 | 1.6 | 4.8 | 0.00 | 0.00 | 0.00 | 77 | 1013.3 |
| 20260509081506 | 13 | 282 | 1.6 | 8.0 | 0.00 | 0.00 | 0.00 | 87 | 1013.0 |
| 20260509070006 | 11 | 0 | 0.0 | 0.0 | 0.00 | 0.00 | 0.00 | 87 | 1013.5 |